Location: Zagreb
(45.8000°N, 16.0000°E)
Time: 02:59:01
(UTC+02:00)

Vanguard 2 Rocket - Pass Details

Date: 16 August 2022
Orbit: 553 x 3323 km, 32.9° (Epoch: 30 September)

Event Time Altitude Azimuth Distance (km) Brightness Sun altitude
Rises 21:11:06 0° 277° (W) 7,292 12.8 -11.4°
Reaches altitude 10° 21:19:08 10° 260° (W) 6,053 11.8 -12.6°
Maximum altitude 21:28:10 16° 231° (SW) 5,063 10.8 -13.9°
Drops below altitude 10° 21:35:49 10° 199° (SSW) 4,954 10.4 -14.9°
Sets 21:41:18 0° 180° (S) 5,417 10.5 -15.7°
